W5CMS-13 Weather Reports


Display with metric or nautical units.
time (UTC)temp
F
wind
direction
speed
MPH
gust
MPH
rain 1hr
in
rain 24hr
in
rain mn
in
humidity
%
barometer
mb
20260906230016 99 0.0 1.0 0.00 0.00 0.00 46 1010.1
20260906225016 99 0.0 4.0 0.00 0.00 0.00 47 1010.1
20260906224017 98 0.0 0.0 0.00 0.00 0.00 47 1010.2
20260906223016 99 203 1.0 7.0 0.00 0.00 0.00 47 1010.2
20260906222016 99 0.0 7.0 0.00 0.00 0.00 48 1010.3
20260906221016 99 225 1.0 8.0 0.00 0.00 0.00 47 1010.2
20260906220016 99 203 2.0 7.0 0.00 0.00 0.00 46 1010.2
20260906215016 99 180 1.0 13.0 0.00 0.00 0.00 47 1010.3
20260906214016 99 203 1.0 10.0 0.00 0.00 0.00 47 1010.3
20260906213017 99 180 1.0 9.0 0.00 0.00 0.00 46 1010.5
20260906212016 99 225 1.0 5.0 0.00 0.00 0.00 47 1010.6
20260906211016 99 158 1.0 9.0 0.00 0.00 0.00 46 1010.8
20260906210016 99 0.0 6.0 0.00 0.00 0.00 47 1011.0
20260906205016 100 0.0 6.0 0.00 0.00 0.00 46 1011.1
20260906204016 99 0.0 6.0 0.00 0.00 0.00 47 1011.3
20260906203016 100 0.0 6.0 0.00 0.00 0.00 47 1011.4
20260906202016 99 0.0 8.0 0.00 0.00 0.00 47 1011.5
20260906201016 99 90 1.0 7.0 0.00 0.00 0.00 48 1011.6
20260906200016 99 0.0 0.0 0.00 0.00 0.00 49 1011.6
20260906195016 98 0.0 4.0 0.00 0.00 0.00 49 1011.8
20260906194017 97 0.0 5.0 0.00 0.00 0.00 51 1011.9
20260906193017 98 158 1.0 7.0 0.00 0.00 0.00 50 1012.1
20260906192016 97 180 1.0 8.0 0.00 0.00 0.00 52 1012.1
20260906191016 97 0.0 13.0 0.00 0.00 0.00 52 1012.3
20260906190016 97 158 1.0 12.0 0.00 0.00 0.00 52 1012.4
20260906185016 97 68 1.0 8.0 0.00 0.00 0.00 53 1012.5
20260906184017 97 0.0 10.0 0.00 0.00 0.00 52 1012.7
20260906183016 96 180 1.0 6.0 0.00 0.00 0.00 54 1012.7
20260906182016 97 225 2.0 8.0 0.00 0.00 0.00 53 1012.8
20260906181016 96 180 1.0 7.0 0.00 0.00 0.00 55 1013.0
20260906180016 95 0.0 5.0 0.00 0.00 0.00 56 1013.1
20260906175017 95 0.0 4.0 0.00 0.00 0.00 55 1013.3
20260906174017 95 0.0 1.0 0.00 0.00 0.00 55 1013.5
20260906173016 95 0.0 5.0 0.00 0.00 0.00 56 1013.6
20260906172016 94 0.0 0.0 0.00 0.00 0.00 57 1013.8
20260906171017 94 0.0 0.0 0.00 0.00 0.00 58 1013.9
20260906170016 93 203 1.0 8.0 0.00 0.00 0.00 59 1013.9
20260906165016 93 0.0 0.0 0.00 0.00 0.00 61 1013.9
20260906164016 93 0.0 0.0 0.00 0.00 0.00 60 1014.1
20260906163016 92 0.0 8.0 0.00 0.00 0.00 62 1014.1
20260906162016 91 0.0 9.0 0.00 0.00 0.00 64 1014.0
20260906161016 91 0.0 0.0 0.00 0.00 0.00 64 1013.9
20260906160016 91 0.0 0.0 0.00 0.00 0.00 62 1013.9
20260906155016 90 0.0 1.0 0.00 0.00 0.00 67 1013.9
20260906154018 90 0.0 0.0 0.00 0.00 0.00 69 1013.8
20260906153017 89 0.0 0.0 0.00 0.00 0.00 71 1013.8
20260906152017 88 0.0 0.0 0.00 0.00 0.00 72 1013.7
20260906151016 88 0.0 0.0 0.00 0.00 0.00 73 1013.7
20260906150016 87 0.0 0.0 0.00 0.00 0.00 74 1013.6
20260906145016 87 0.0 0.0 0.00 0.00 0.00 76 1013.6
20260906144016 86 0.0 0.0 0.00 0.00 0.00 77 1013.5
20260906143016 85 0.0 0.0 0.00 0.00 0.00 79 1013.6
20260906142016 85 0.0 0.0 0.00 0.00 0.00 79 1013.7
20260906141016 84 0.0 0.0 0.00 0.00 0.00 80 1013.6
20260906140016 83 0.0 0.0 0.00 0.00 0.00 81 1013.5
20260906135016 83 0.0 0.0 0.00 0.00 0.00 83 1013.4
20260906134018 82 0.0 0.0 0.00 0.00 0.00 84 1013.4
20260906133016 81 0.0 0.0 0.00 0.00 0.00 85 1013.5
20260906132016 80 0.0 0.0 0.00 0.00 0.00 86 1013.5
20260906131016 80 0.0 0.0 0.00 0.00 0.00 88 1013.5
20260906130016 79 0.0 0.0 0.00 0.00 0.00 90 1013.4
20260906125016 78 0.0 0.0 0.00 0.00 0.00 91 1013.3
20260906124016 77 0.0 0.0 0.00 0.00 0.00 93 1013.2
20260906123016 76 0.0 0.0 0.00 0.00 0.00 93 1013.1
20260906122017 76 0.0 0.0 0.00 0.00 0.00 92 1013.0
20260906121018 76 0.0 0.0 0.00 0.00 0.00 92 1012.9
20260906120017 76 0.0 0.0 0.00 0.00 0.00 92 1012.8
20260906115016 76 0.0 0.0 0.00 0.00 0.00 91 1012.8
20260906114016 77 0.0 0.0 0.00 0.00 0.00 92 1012.8
20260906113017 76 0.0 0.0 0.00 0.00 0.00 91 1012.6
20260906112016 76 0.0 0.0 0.00 0.00 0.00 91 1012.5
20260906111016 77 0.0 0.0 0.00 0.00 0.00 90 1012.7
20260906110018 77 0.0 0.0 0.00 0.00 0.00 91 1012.6
20260906105016 77 0.0 0.0 0.00 0.00 0.00 91 1012.5
20260906104016 77 0.0 0.0 0.00 0.00 0.00 90 1012.4
20260906103016 78 0.0 0.0 0.00 0.00 0.00 90 1012.5
20260906102016 78 0.0 0.0 0.00 0.00 0.00 89 1012.3
20260906101016 78 0.0 0.0 0.00 0.00 0.00 88 1012.3
20260906100016 78 0.0 0.0 0.00 0.00 0.00 89 1012.3
20260906095016 78 0.0 0.0 0.00 0.00 0.00 88 1012.2
20260906094016 79 0.0 0.0 0.00 0.00 0.00 88 1012.1
20260906093016 79 0.0 0.0 0.00 0.00 0.00 87 1011.9
20260906092017 79 0.0 0.0 0.00 0.00 0.00 86 1011.9
20260906091016 80 0.0 0.0 0.00 0.00 0.00 85 1011.7
20260906090016 80 0.0 0.0 0.00 0.00 0.00 85 1011.7
20260906085018 80 0.0 0.0 0.00 0.00 0.00 84 1011.8
20260906084016 81 0.0 0.0 0.00 0.00 0.00 84 1011.6
20260906083016 81 0.0 0.0 0.00 0.00 0.00 84 1011.7
20260906082016 81 0.0 0.0 0.00 0.00 0.00 83 1011.7
20260906081016 81 0.0 0.0 0.00 0.00 0.00 83 1011.7
20260906080016 81 0.0 0.0 0.00 0.00 0.00 82 1011.8
20260906075016 82 0.0 0.0 0.00 0.00 0.00 82 1011.9
20260906074016 82 0.0 0.0 0.00 0.00 0.00 81 1011.9
20260906073016 82 0.0 0.0 0.00 0.00 0.00 80 1011.9
20260906072017 82 0.0 0.0 0.00 0.00 0.00 80 1011.7
20260906071016 82 0.0 0.0 0.00 0.00 0.00 80 1011.9
20260906070016 83 0.0 0.0 0.00 0.00 0.00 79 1012.1
20260906065016 83 0.0 0.0 0.00 0.00 0.00 79 1012.1
20260906064016 83 0.0 0.0 0.00 0.00 0.00 78 1012.1
20260906063016 83 0.0 0.0 0.00 0.00 0.00 77 1012.0
20260906062016 83 0.0 0.0 0.00 0.00 0.00 76 1012.0
20260906061016 84 0.0 0.0 0.00 0.00 0.00 75 1012.1
20260906060016 84 0.0 0.0 0.00 0.00 0.00 75 1012.2
20260906055016 84 0.0 0.0 0.00 0.00 0.00 74 1012.1
20260906054016 84 0.0 0.0 0.00 0.00 0.00 73 1012.2
20260906053016 84 0.0 0.0 0.00 0.00 0.00 72 1012.1
20260906052016 85 0.0 0.0 0.00 0.00 0.00 72 1011.9
20260906051017 85 0.0 0.0 0.00 0.00 0.00 71 1011.9
20260906050016 85 0.0 0.0 0.00 0.00 0.00 71 1012.0
20260906045016 85 0.0 0.0 0.00 0.00 0.00 71 1011.9
20260906044017 85 0.0 0.0 0.00 0.00 0.00 71 1012.0
20260906043016 86 0.0 0.0 0.00 0.00 0.00 71 1012.0
20260906042016 86 0.0 0.0 0.00 0.00 0.00 71 1012.1
20260906041016 86 0.0 0.0 0.00 0.00 0.00 71 1012.0
20260906040016 86 0.0 0.0 0.00 0.00 0.00 70 1012.0
20260906035016 86 0.0 0.0 0.00 0.00 0.00 70 1012.0
20260906034016 86 0.0 0.0 0.00 0.00 0.00 70 1012.0
20260906033017 87 0.0 1.0 0.00 0.00 0.00 70 1011.9
20260906032020 87 0.0 0.0 0.00 0.00 0.00 69 1011.9
20260906031018 87 0.0 0.0 0.00 0.00 0.00 68 1012.0
20260906030017 88 0.0 1.0 0.00 0.00 0.00 67 1011.9
20260906025016 88 0.0 0.0 0.00 0.00 0.00 67 1011.9
20260906024016 88 0.0 0.0 0.00 0.00 0.00 67 1011.7
20260906023016 88 0.0 0.0 0.00 0.00 0.00 66 1011.5
20260906022016 88 0.0 0.0 0.00 0.00 0.00 66 1011.4
20260906021016 88 0.0 0.0 0.00 0.00 0.00 65 1011.2
20260906020016 88 0.0 0.0 0.00 0.00 0.00 65 1011.0
20260906015017 88 0.0 1.0 0.00 0.00 0.00 65 1011.0
20260906014016 88 0.0 0.0 0.00 0.00 0.00 64 1011.0
20260906013017 89 180 1.0 11.0 0.00 0.00 0.00 63 1010.7
20260906012017 90 203 3.0 12.0 0.00 0.00 0.00 61 1010.6
20260906011018 92 180 1.0 15.0 0.00 0.00 0.00 58 1010.4
20260906010017 93 180 1.0 10.0 0.00 0.00 0.00 57 1010.3
20260906005016 93 0.0 0.0 0.00 0.00 0.00 56 1010.1
20260906004016 95 180 2.0 8.0 0.00 0.00 0.00 54 1010.2
20260906003016 96 0.0 0.0 0.00 0.00 0.00 51 1010.0
20260906002016 96 0.0 1.0 0.00 0.00 0.00 50 1010.1
20260906001017 97 0.0 1.0 0.00 0.00 0.00 49 1010.1
20260906000018 98 0.0 0.0 0.00 0.00 0.00 48 1010.0
20260905235016 98 0.0 1.0 0.00 0.00 0.00 47 1009.9
20260905234017 98 0.0 0.0 0.00 0.00 0.00 46 1009.8
20260905233016 99 0.0 0.0 0.00 0.00 0.00 45 1010.0
20260905232017 99 0.0 0.0 0.00 0.00 0.00 45 1009.9
20260905231016 99 0.0 4.0 0.00 0.00 0.00 45 1010.0